Weather in Viktoropol

Russia / Belgorod Oblast     50°04′51″N   38°28′43″E
temp.,
°C
wind,
m/s
gust,
m/s
humid.,
%
clouds,
%
prec.,
mm/h
press.,
hPa
HPBL,
m
3 august, tue
tue300:00+23wsw365661 0.0 101088
03:00+22w226667 0.0 101014
06:00+21wnw2376100 0.0 101164
09:00+25w466686 1.1 1012586
12:00+28w685290 0.3 10121098
15:00+28w4552100 0.3 10111024
18:00+26nnw236480 0.0 1010116
21:00+20nnw2288100 1.9 101256
4 august, wed
wed400:00+19nnw3981100 0.1 1014211
03:00+17nne388397 0.1 1014144
06:00+17nnw22825 0.0 101547
09:00+22nnw34604 0.0 1017550
12:00+26nnw453910 0.0 10172260
15:00+27nw443753 0.0 10162292
18:00+26nnw133998 0.0 1016870
21:00+21n3354100 0.0 101732
5 august, thu
thu500:00+18n345362 0.0 101859
03:00+17ne346125 0.0 101852
06:00+17ene22625 0.0 101833
09:00+23ene224658 0.0 1018422
12:00+27ese1135100 0.0 10181592
15:00+28ese1132100 0.0 10161964
18:00+27ne123983 0.0 1016203
21:00+22e464424 0.0 101574
6 august, fri
fri600:00+20e47485 0.0 1014107
03:00+19ese47505 0.0 1014107
06:00+18se4115512 0.0 1013189
09:00+25se584325 0.0 1013446
12:00+30se67316 0.0 10111465
15:00+32sse45295 0.0 10102221
18:00+31ese343715 0.0 1009126
21:00+26e4642100 0.0 100878
7 august, sat
sat700:00+24ese4114066 0.0 1008171
03:00+23ese41347100 0.1 1007248
06:00+20ese367399 2.3 1009108
09:00+25e5855100 3.9 1009339
12:00+33sse7102875 0.1 10072158
15:00+35se79225 0.1 10062972
18:00+32sse5103041 0.0 1006305
21:00+25s344740 0.2 100855